GFSSGP_850_spd_324.txt.gz
Wind_Speed
8 11 8 4 2 5 1 2 11 9 5 6 17 10 11 15 1 4 20 19 18 17 16 15 14 15 15 15 15 15 15 15 16 16 16 16 16 16 16 16 15 15 15 15 15 15 16 17 18
8 5 4 2 4 5 3 3 9 9 17 27 19 12 13 5 12 25 24 20 18 16 16 15 15 14 14 14 14 15 15 15 15 16 15 15 14 14 15 15 15 16 16 15 15 15 15 17 17
10 9 8 3 2 3 4 2 10 19 18 7 9 15 6 10 28 28 22 19 17 17 16 16 15 15 14 14 14 15 15 15 15 16 14 15 13 14 15 16 17 16 16 15 15 15 15 15 17
9 2 4 3 2 2 6 4 18 15 15 16 21 9 13 17 20 23 22 17 17 15 15 15 15 15 14 14 15 15 15 15 15 14 14 13 14 16 17 17 16 16 16 16 16 16 15 14 12
13 4 2 2 4 4 2 17 18 9 13 20 15 10 11 19 22 22 20 18 16 17 14 13 14 14 14 14 15 15 15 15 15 14 13 13 14 15 16 17 16 15 14 15 16 17 17 16 12
6 3 3 2 3 3 4 17 19 19 23 24 22 20 9 27 24 22 17 15 10 13 13 12 14 14 13 13 14 14 15 14 14 12 12 14 15 15 16 16 15 14 14 15 16 16 14 12 10
7 2 2 3 4 3 5 11 19 23 25 12 25 9 20 30 23 21 19 16 14 14 13 13 13 13 14 15 15 15 15 15 14 13 14 15 16 17 17 15 14 13 12 12 12 12 11 8 7
7 4 3 4 2 6 2 8 25 29 11 26 32 7 17 33 27 23 20 17 18 15 14 12 13 14 14 15 15 16 16 17 18 18 18 18 17 15 14 12 12 10 7 6 7 8 7 5 8
6 3 3 4 6 8 20 13 26 17 28 15 9 28 29 29 27 26 22 20 18 17 15 13 14 16 14 15 17 18 19 19 20 20 20 18 17 15 13 12 9 7 6 6 6 7 4 2 3
3 1 5 3 2 5 22 25 19 13 17 19 27 27 27 31 33 28 24 22 17 15 16 13 14 18 17 18 20 22 24 24 22 19 17 16 16 15 12 10 7 5 3 4 5 6 5 1 1
2 4 3 7 17 13 19 20 17 25 13 33 31 32 27 27 30 23 22 19 12 11 14 13 17 20 22 22 24 24 23 22 16 13 11 13 14 14 11 9 7 3 1 2 8 4 3 4 3
3 12 13 10 13 16 13 18 13 22 16 37 38 37 30 26 30 27 25 19 18 14 14 15 18 20 25 23 24 22 19 15 15 16 12 7 8 9 8 6 6 4 5 1 3 4 2 4 2
3 8 7 12 14 9 20 7 10 19 34 36 34 34 29 30 29 26 20 18 18 17 18 17 18 21 22 23 21 18 15 13 12 14 5 6 8 7 3 7 3 3 4 6 5 4 3 3 5
6 14 14 17 11 21 14 5 13 25 35 33 34 31 26 29 30 28 24 24 22 18 21 20 17 18 17 18 15 17 15 11 14 11 9 8 10 6 7 7 10 6 5 7 3 2 2 4 6
15 9 4 7 13 6 20 5 10 29 33 32 31 27 24 25 28 27 28 28 24 22 24 21 18 18 17 15 15 15 14 13 12 11 8 5 4 5 7 5 10 5 3 1 2 2 3 5 1
4 4 4 4 8 3 7 4 4 31 32 30 33 29 26 26 24 29 31 32 25 25 25 22 22 22 21 17 15 18 16 14 13 12 7 4 5 4 3 4 5 4 2 4 2 3 5 4 5
5 1 2 6 2 3 4 3 7 28 31 27 29 28 27 24 29 31 33 29 25 24 24 22 24 25 25 22 19 18 18 19 13 11 9 7 7 5 3 3 3 2 2 2 1 3 4 5 7
3 2 1 4 1 13 4 1 7 3 5 18 27 30 30 27 34 32 31 26 24 24 22 22 16 26 29 28 24 18 18 13 13 8 7 8 14 10 8 6 7 6 7 9 9 10 10 9 11
6 3 5 5 6 2 5 4 3 11 10 9 10 19 29 26 36 32 29 26 24 23 24 22 18 16 19 30 30 22 17 13 13 11 10 7 12 14 14 13 10 12 15 17 14 16 13 14 15
3 4 5 4 4 4 14 7 1 6 9 10 10 13 17 13 33 36 34 30 29 26 26 23 19 19 15 14 29 23 16 11 11 18 14 11 20 19 16 15 15 15 15 15 15 11 10 13 11
9 4 4 4 3 12 5 6 4 3 12 20 18 21 22 20 24 38 36 34 31 30 29 27 22 23 21 17 20 25 20 14 11 11 17 16 20 15 14 11 12 15 18 17 15 11 9 9 14
1 9 13 9 4 3 2 4 7 9 5 9 23 23 27 16 8 34 40 36 35 33 31 28 22 26 25 23 19 21 22 17 16 15 13 19 20 18 15 13 15 13 16 12 11 10 9 8 8
9 10 1 3 4 6 5 3 7 5 5 10 14 8 11 6 13 15 42 42 38 33 34 30 25 28 28 25 21 23 24 21 19 17 16 15 17 21 21 20 17 18 15 10 12 11 9 6 3
2 4 3 3 3 3 5 4 4 5 6 5 11 9 8 15 20 26 43 44 40 35 31 33 29 29 30 28 26 24 24 20 19 20 21 21 23 24 29 31 28 24 24 19 14 13 8 8 7
6 4 2 3 1 6 2 5 9 5 3 14 17 15 7 4 25 21 35 38 45 42 33 33 37 32 33 32 29 26 28 26 23 23 19 19 21 22 24 26 26 20 20 20 14 9 6 6 9
2 6 5 6 5 3 2 6 6 4 14 20 28 24 18 15 42 36 27 47 47 43 41 40 41 38 35 32 28 27 27 26 24 21 8 11 13 15 12 9 11 13 11 10 10 9 7 5 8
3 5 8 3 2 3 5 4 4 2 3 13 14 19 21 20 18 18 25 35 35 37 40 43 41 39 34 31 28 21 23 20 17 10 5 5 8 7 8 10 9 7 9 11 11 11 10 9 8
6 1 4 3 2 4 3 3 5 9 8 2 4 18 20 11 9 8 18 26 34 35 40 35 34 35 33 31 25 19 16 11 9 7 4 7 7 7 6 8 8 9 10 12 11 11 9 8 11
5 4 2 2 5 5 2 5 6 11 11 14 11 15 16 16 8 9 9 14 20 26 32 34 30 28 26 20 16 13 11 8 8 6 8 9 7 5 4 4 5 6 7 8 10 9 8 9 8
5 5 5 4 8 2 4 5 7 7 13 21 18 19 17 13 13 11 12 11 11 16 22 23 21 16 12 11 10 11 10 10 11 10 11 9 5 4 5 6 7 8 8 9 9 6 7 8 6

GFSSGP_850_spd_327.txt.gz
Wind_Speed
5 4 4 3 3 3 2 4 3 4 3 3 23 5 7 5 2 3 20 18 17 16 16 15 14 14 14 15 16 16 17 17 17 17 16 16 16 15 15 14 15 14 13 14 13 13 13 14 13
6 3 4 1 4 4 2 2 4 2 11 23 17 11 6 3 7 18 24 17 17 16 16 16 15 15 15 15 15 16 16 16 18 18 16 16 16 16 15 14 15 15 14 13 13 13 13 15 12
3 5 2 3 2 2 4 3 6 6 9 6 6 10 5 3 17 21 18 21 18 16 15 15 15 15 15 14 14 16 15 17 17 17 16 16 15 16 16 16 16 15 14 13 13 13 12 12 12
4 2 6 4 3 2 4 7 15 9 9 9 17 7 10 12 15 17 18 18 17 17 15 15 15 14 14 14 15 16 17 17 17 17 16 16 16 17 18 18 17 16 15 14 13 13 13 11 9
6 5 4 3 4 2 4 14 13 4 5 12 7 7 10 13 17 19 18 19 19 17 15 15 14 14 14 16 16 16 16 16 16 16 16 17 18 18 18 18 17 17 16 16 15 13 11 11 10
5 3 4 2 5 3 4 14 15 13 19 17 15 13 5 14 18 18 16 17 15 16 15 14 14 14 15 15 15 16 16 16 16 15 15 16 16 16 17 17 17 16 15 14 14 12 10 9 9
4 3 3 1 3 2 4 15 8 13 12 7 20 5 11 22 18 18 15 13 15 14 14 13 13 14 14 15 15 15 15 15 14 15 15 15 16 17 17 16 16 14 13 12 11 9 6 5 5
4 3 2 1 3 2 10 7 14 17 5 21 18 7 9 26 21 18 14 11 13 13 12 13 13 13 14 15 15 15 15 14 15 16 17 17 17 17 15 14 13 13 11 10 9 7 5 5 3
3 3 1 3 4 3 9 7 14 5 21 3 10 18 27 29 23 21 17 14 14 13 12 13 14 14 15 14 16 16 14 16 18 19 20 20 18 16 16 13 11 11 11 9 6 4 2 3 1
2 2 0 1 3 4 9 21 19 8 14 6 17 23 28 29 26 24 20 17 15 14 13 14 15 16 16 16 17 17 18 20 20 19 19 18 18 16 15 13 11 10 9 7 6 3 4 3 3
2 1 2 9 4 12 16 14 7 23 3 20 30 28 30 30 29 26 20 15 16 15 11 15 16 17 18 18 18 22 23 22 20 18 17 17 16 15 14 12 12 9 8 5 3 3 2 4 5
2 9 5 7 10 3 11 16 10 15 9 27 33 31 33 33 31 28 23 19 19 12 11 16 17 19 20 23 25 22 19 16 15 15 15 14 14 13 12 11 9 9 6 4 2 2 1 1 3
3 4 7 18 19 12 12 8 9 13 17 27 33 30 32 30 28 27 19 17 18 15 13 16 19 22 24 26 22 19 15 15 15 15 9 10 11 10 8 8 6 9 6 8 4 4 4 2 3
7 13 19 16 10 19 15 6 14 13 30 32 34 33 31 28 29 27 24 21 21 19 16 19 23 22 23 23 19 15 13 13 15 8 10 8 11 3 5 5 5 7 5 9 8 5 5 3 2
16 7 6 8 1 4 12 4 3 28 30 30 32 32 30 31 30 29 26 22 22 22 21 21 23 22 20 20 18 16 12 15 12 9 11 6 4 3 2 9 7 10 7 8 7 6 7 7 5
4 4 5 5 8 3 5 4 5 24 29 27 30 32 30 31 32 30 28 23 24 24 26 23 24 23 19 16 15 18 15 15 13 9 11 9 7 7 4 6 8 5 5 8 8 8 6 2 5
5 2 1 7 4 1 4 2 9 21 22 24 29 31 29 30 30 32 31 30 30 27 27 24 24 24 21 18 15 19 17 15 13 14 13 9 10 10 8 8 11 11 8 7 6 6 7 6 6
3 4 4 3 2 2 2 6 7 18 21 21 24 31 30 27 29 27 31 34 32 29 26 22 20 23 24 21 18 18 16 17 16 14 16 15 15 13 11 11 11 10 8 7 8 9 9 10 13
3 5 7 3 5 3 5 5 7 20 24 24 27 28 32 31 26 28 34 34 34 31 27 24 21 25 27 28 26 21 16 16 20 20 15 16 21 19 16 13 12 12 11 10 11 13 15 15 15
7 8 4 1 9 4 5 3 7 11 22 28 24 27 27 20 25 36 38 39 37 32 29 27 25 22 28 31 30 27 23 20 18 20 20 17 19 23 21 19 16 13 15 14 16 16 15 13 12
3 3 3 1 5 1 2 6 6 8 9 9 17 11 18 20 27 40 43 44 37 36 32 29 28 25 23 30 34 31 28 26 23 23 25 23 20 25 25 24 21 19 16 18 17 15 14 12 11
2 3 9 7 4 5 5 5 6 5 6 5 9 14 14 17 24 34 43 43 41 38 33 28 27 26 24 24 28 35 38 32 26 22 17 22 19 25 27 23 20 17 16 16 14 8 10 14 12
9 6 8 8 3 3 2 1 7 3 6 7 4 15 18 14 10 24 35 43 42 39 38 32 28 27 26 27 26 28 39 38 31 25 22 20 18 23 23 21 18 19 17 15 13 14 10 13 10
2 2 5 6 4 1 4 6 7 4 6 3 5 14 19 15 14 14 13 24 37 37 36 38 33 28 27 29 29 28 27 30 29 25 24 21 21 22 25 25 24 24 19 16 14 11 11 10 8
4 5 3 3 1 6 3 3 9 2 6 8 11 18 18 18 18 22 20 15 29 42 39 38 39 33 31 31 31 29 26 27 27 25 25 24 24 22 23 22 19 18 16 13 13 15 10 6 6
6 7 5 5 4 5 2 6 5 4 3 6 11 6 11 15 21 19 18 12 16 32 39 36 40 37 36 35 36 34 32 22 26 29 28 21 16 14 15 13 8 6 7 4 4 4 5 5 5
5 4 5 3 3 2 3 6 1 3 2 3 5 8 4 8 14 17 17 20 17 24 33 44 37 38 38 38 37 35 29 10 25 29 18 12 11 11 7 4 7 5 4 5 7 6 6 6 8
2 3 3 3 2 4 4 5 4 7 8 4 4 10 7 5 9 17 17 16 19 23 34 39 45 41 33 35 34 31 25 29 24 18 15 12 9 7 7 8 8 8 8 8 9 11 8 7 7
3 3 4 4 4 2 3 6 5 12 14 8 6 3 4 3 2 6 11 13 14 19 29 34 38 31 25 22 29 25 15 15 14 11 10 9 8 7 6 5 3 3 5 5 6 7 7 7 6
1 2 4 5 6 3 5 6 4 4 13 20 12 12 9 8 7 5 5 6 8 12 18 23 29 30 26 29 18 12 13 11 9 10 11 9 8 6 3 3 4 5 5 6 5 5 6 6 7

GFSSGP_850_spd_333.txt.gz
Wind_Speed
2 2 1 3 1 2 4 4 2 9 8 3 10 1 3 4 1 3 20 19 20 17 16 15 12 11 11 12 12 13 14 13 13 12 12 12 12 12 12 12 11 11 11 12 14 14 13 14 13
1 3 3 2 3 5 4 3 8 4 11 14 11 6 3 2 2 15 22 22 19 18 17 16 13 11 12 13 12 13 13 13 13 13 13 13 12 12 12 11 10 11 12 13 14 15 15 13 16
6 1 2 2 2 4 5 4 11 13 14 10 5 3 2 1 8 22 19 24 20 18 16 15 13 12 13 11 12 12 12 12 12 13 13 13 12 11 12 12 10 11 12 13 14 13 14 14 13
1 2 3 5 8 4 4 12 11 13 12 7 11 8 5 3 17 15 23 21 19 18 15 14 14 12 13 12 13 12 13 13 12 13 14 13 12 11 12 12 11 11 12 12 13 12 11 11 11
2 2 3 4 6 4 9 13 4 4 7 10 8 8 10 1 9 19 21 20 18 17 15 14 13 12 12 13 13 13 13 12 12 14 12 12 12 14 13 11 11 10 10 10 10 10 9 9 9
2 2 4 5 6 7 5 6 4 6 8 11 15 13 5 7 14 21 20 19 17 16 15 14 13 12 12 12 12 14 13 13 12 13 13 13 15 15 14 13 12 11 10 10 9 8 8 8 6
3 2 3 6 8 5 5 6 4 7 9 8 14 9 6 11 16 19 18 18 17 15 15 15 15 13 13 13 13 13 13 13 12 14 15 15 15 14 14 13 12 12 12 11 10 9 7 5 4
3 2 3 2 6 4 9 6 10 5 7 13 10 6 10 17 17 17 17 17 16 15 15 15 15 13 13 14 14 13 13 12 12 15 16 15 15 15 14 13 11 10 10 10 8 6 6 3 3
1 3 3 2 4 6 13 5 6 4 16 5 1 10 19 23 19 18 18 17 16 15 15 16 15 15 16 16 15 14 14 13 14 16 17 16 16 15 14 13 10 9 7 7 6 5 3 2 1
3 2 2 1 2 5 16 12 11 8 10 4 8 17 25 23 21 20 19 19 19 17 16 16 16 17 19 17 17 17 16 15 17 18 18 17 16 15 14 12 10 9 8 5 4 2 3 3 1
1 2 0 2 1 9 15 10 6 12 6 9 21 26 27 24 19 16 16 15 16 17 17 18 17 18 19 18 19 20 17 17 18 18 18 17 16 15 13 11 10 8 5 4 2 2 2 0 2
1 1 2 3 5 6 10 10 6 13 2 9 24 27 26 25 21 18 15 15 17 17 17 19 19 19 18 19 20 18 18 18 19 19 18 17 16 14 12 10 8 6 3 3 3 2 2 3 2
2 2 2 1 3 5 9 8 3 10 3 15 24 24 23 21 20 18 16 15 16 16 17 19 20 19 19 20 20 19 19 19 20 20 19 17 15 13 11 10 9 8 7 6 7 3 1 1 1
4 6 2 2 2 3 7 5 5 7 11 19 24 23 21 21 20 18 18 18 15 15 17 17 18 19 20 20 20 21 20 20 18 17 16 15 14 13 11 10 10 8 10 10 10 7 5 5 4
2 4 7 9 5 3 8 5 8 10 17 21 23 21 21 21 20 21 20 20 17 15 17 18 18 20 21 22 23 21 18 17 17 16 14 13 13 12 10 10 11 12 8 5 7 7 8 9 10
1 2 2 5 2 3 9 7 7 15 22 21 23 22 21 21 23 22 21 20 19 16 17 19 21 21 22 24 23 18 16 16 17 15 12 11 14 14 9 7 7 7 7 6 8 7 8 7 6
4 4 2 2 5 2 4 7 5 16 21 21 22 24 24 23 24 25 25 23 21 19 18 22 22 23 24 25 21 16 13 15 17 15 13 14 11 12 10 7 10 8 9 9 8 7 7 8 9
2 2 2 2 2 3 6 13 5 17 21 25 24 23 24 24 27 26 26 25 24 22 20 22 24 25 27 26 23 21 19 18 19 18 15 13 13 12 11 10 9 12 14 14 13 11 9 10 11
6 4 4 7 7 5 12 14 12 17 20 22 25 26 26 28 27 24 26 27 27 27 27 26 27 27 30 31 29 26 25 22 21 21 18 16 14 13 13 12 13 15 17 18 16 15 12 14 15
2 2 3 7 5 5 8 16 10 17 26 28 29 27 28 27 25 25 26 30 31 31 32 31 30 30 31 31 30 28 25 24 23 21 19 19 18 16 17 19 21 21 20 21 16 14 16 16 15
2 1 1 4 6 2 9 9 5 9 19 23 26 26 27 27 28 27 30 33 34 36 36 36 34 32 32 33 32 29 27 26 25 23 22 23 22 21 22 24 24 23 21 23 23 17 13 14 13
4 4 5 5 4 4 6 6 5 1 8 18 25 28 30 30 28 26 30 33 34 36 36 38 35 35 33 35 35 32 30 28 26 23 20 18 19 19 21 20 17 19 27 26 23 13 11 11 12
2 3 4 3 2 7 3 4 5 1 5 10 20 27 31 32 29 30 31 34 32 31 33 35 39 37 35 35 35 33 32 29 28 25 25 22 21 19 19 22 27 28 28 24 18 13 14 13 15
4 2 4 3 1 2 2 3 8 3 2 4 5 19 24 22 25 28 31 34 32 30 33 32 37 37 37 34 33 33 32 31 28 26 25 24 17 12 12 19 20 23 23 18 10 12 14 14 13
4 1 3 2 1 2 0 4 11 4 7 7 9 8 16 19 20 19 24 29 30 30 30 32 32 36 35 33 30 29 31 31 28 25 21 18 11 16 22 23 23 21 11 10 13 11 12 12 12
5 3 3 5 5 6 2 5 4 2 5 5 4 4 5 9 14 13 12 16 21 29 27 29 33 29 31 30 30 28 27 22 15 13 10 13 12 5 5 6 23 14 9 9 11 10 7 7 6
6 6 1 3 1 4 2 5 10 2 3 2 2 3 3 5 6 6 13 11 12 21 26 28 36 35 34 32 28 26 26 20 10 13 12 4 2 5 12 23 15 8 8 7 7 8 6 6 5
3 5 3 2 4 7 4 5 6 12 12 8 6 8 6 5 7 8 11 12 13 15 19 26 33 33 35 35 28 30 28 19 17 18 7 7 12 19 21 14 13 10 9 8 7 6 6 6 6
4 4 2 0 3 6 8 6 2 10 11 13 10 9 7 6 4 5 6 8 13 17 19 22 25 28 30 32 29 28 26 19 18 11 14 18 20 18 12 14 12 11 10 10 10 10 10 9 9
2 2 2 3 5 3 4 8 3 8 13 12 12 8 7 7 6 3 1 2 3 4 10 17 17 18 19 24 27 29 27 22 21 15 16 21 18 12 15 14 12 11 12 12 11 9 9 9 9

GFSSGP_850_spd_336.txt.gz
Wind_Speed
2 5 2 2 4 2 9 7 7 11 10 3 11 1 4 6 6 5 17 13 18 16 13 14 11 10 12 12 12 12 13 13 12 9 9 11 12 12 12 11 9 9 10 12 12 11 11 10 11
3 2 2 4 3 7 8 6 9 6 9 13 8 6 4 6 6 15 18 16 17 15 13 12 12 9 11 11 12 12 12 13 11 11 11 12 12 11 11 10 11 10 12 13 13 14 15 15 14
3 1 3 3 2 9 11 7 8 8 12 11 4 2 3 4 11 18 13 20 16 14 12 13 12 10 12 11 11 11 12 12 11 12 12 12 11 11 9 10 10 11 12 13 13 13 13 12 12
2 2 4 2 11 10 12 10 9 12 8 6 5 7 7 9 15 10 20 18 16 14 13 12 12 12 13 11 11 11 11 12 12 11 12 11 10 11 11 10 10 10 11 12 11 11 11 11 10
2 3 3 7 12 10 11 10 5 4 8 8 6 7 14 9 9 18 19 17 16 15 13 13 13 12 12 11 11 11 11 11 11 11 12 11 10 12 10 10 9 10 10 9 8 7 8 8 8
3 4 5 8 13 10 8 6 4 4 8 9 7 15 10 10 16 18 17 16 15 14 13 12 13 11 12 12 12 13 12 11 12 12 10 11 13 12 10 9 9 10 10 9 7 6 6 6 5
3 2 8 8 12 7 8 4 5 8 9 9 16 10 11 14 18 18 16 16 15 14 13 11 11 13 13 13 12 12 11 11 11 11 11 12 12 11 10 10 10 11 10 9 7 6 4 4 3
1 2 6 6 5 11 8 6 7 6 8 13 13 7 16 18 19 18 16 15 14 13 13 13 13 11 11 10 14 13 12 10 10 12 13 13 11 11 11 10 8 9 8 7 6 3 3 3 3
1 3 7 6 2 8 11 8 5 4 14 7 3 7 19 22 20 18 17 16 15 14 14 14 13 13 13 12 13 13 13 12 12 12 14 14 8 9 9 7 8 7 6 5 4 2 1 0 4
4 2 5 4 2 6 11 7 9 9 10 5 5 12 22 21 21 20 19 18 17 16 15 14 13 13 13 12 13 11 10 9 10 11 13 10 10 9 9 7 7 6 4 2 2 1 0 1 2
2 7 3 5 5 7 9 6 5 9 6 5 13 21 21 19 18 18 16 16 17 16 15 15 15 14 13 13 12 11 10 10 10 14 14 11 10 9 7 6 4 3 2 2 4 3 3 4 2
3 4 3 4 7 8 8 9 7 5 7 6 15 20 21 19 17 15 15 15 16 17 17 15 15 14 15 13 13 13 13 12 11 13 17 13 12 11 9 6 6 5 3 3 4 4 3 1 2
4 3 3 5 5 7 8 7 3 7 3 11 19 21 19 18 16 13 12 13 15 15 16 16 17 17 16 15 12 13 12 11 11 12 16 13 9 9 6 5 5 5 6 6 7 4 2 2 2
4 3 5 5 5 5 5 4 4 6 7 15 19 21 20 18 16 15 14 13 14 15 16 16 16 16 16 15 14 12 10 10 11 11 12 16 13 11 9 8 6 6 7 8 7 7 5 4 4
1 8 8 5 3 3 5 7 7 7 13 16 18 19 20 19 17 16 15 16 14 13 15 17 17 16 17 17 16 14 12 11 11 11 13 15 13 11 10 8 9 9 10 9 6 6 7 6 7
4 4 6 6 3 3 9 0 7 10 16 17 18 19 20 20 19 17 15 14 14 13 15 16 17 18 17 17 18 15 14 14 12 11 10 12 13 13 10 7 7 7 7 5 5 6 6 5 6
4 2 4 5 4 3 9 6 4 12 17 17 20 20 21 21 21 19 18 17 16 15 15 17 17 18 19 19 20 18 15 14 13 13 12 13 12 12 12 6 5 7 5 4 5 6 5 6 6
1 5 3 7 6 9 10 13 12 12 17 18 20 20 21 22 25 23 21 19 17 17 16 17 18 18 19 21 24 17 14 13 13 14 12 11 10 11 11 8 8 8 5 5 6 7 6 6 9
3 2 6 4 2 8 14 13 12 12 17 18 20 22 22 23 22 23 23 22 20 19 19 18 20 21 22 22 22 18 17 15 14 14 14 12 10 10 11 9 8 9 7 10 14 11 11 12 10
5 6 6 1 2 7 11 15 12 10 16 19 20 22 23 22 22 24 24 23 24 23 22 21 21 23 25 23 22 20 18 16 15 14 14 17 15 14 13 13 11 14 12 17 17 17 20 21 19
4 8 8 10 8 7 10 6 3 6 13 16 19 20 23 24 24 25 26 26 25 25 26 26 27 25 26 25 22 18 16 15 14 14 13 14 18 18 18 18 18 18 16 16 18 20 27 29 18
3 5 9 11 10 8 4 4 2 2 2 10 17 22 25 25 25 24 26 26 27 28 26 26 30 30 29 30 23 24 18 17 16 15 16 15 17 17 21 15 12 9 13 17 25 16 25 28 25
5 4 7 10 10 7 6 6 8 4 5 1 9 17 23 26 27 28 26 25 26 23 25 25 32 33 34 32 32 25 24 17 14 15 18 16 16 16 15 14 16 16 21 25 16 19 16 16 18
2 8 9 6 5 3 7 6 2 11 10 6 8 7 12 21 24 24 25 24 23 22 22 23 27 32 37 39 35 36 24 19 19 12 18 18 17 19 20 16 15 14 21 23 23 23 16 16 17
6 10 4 3 2 5 5 8 6 12 9 9 11 11 8 11 17 18 20 22 21 21 24 26 24 29 30 38 32 32 31 23 18 21 19 18 17 18 20 20 19 24 20 14 16 16 16 13 14
4 9 7 7 8 10 2 4 6 8 8 9 10 10 6 5 10 13 14 13 16 17 17 19 21 22 30 31 28 29 31 29 25 22 20 15 16 15 5 4 8 6 11 13 12 13 11 12 10
6 7 8 11 13 8 4 5 10 6 7 12 12 8 5 3 4 7 9 8 8 13 17 20 18 23 22 28 34 33 22 16 10 6 10 25 31 27 26 9 10 11 18 14 12 12 11 8 7
10 6 7 6 7 11 12 13 8 11 17 15 15 13 6 5 6 6 7 7 7 8 11 17 21 25 31 32 26 20 19 20 16 14 25 22 17 19 15 11 13 16 12 13 12 11 10 9 7
6 10 7 8 7 11 13 9 15 12 12 17 17 16 8 8 6 5 4 4 5 11 12 13 21 25 28 34 32 25 24 28 32 32 25 20 18 16 11 13 15 14 13 13 13 11 9 8 8
9 11 9 9 11 10 9 14 7 6 15 21 22 13 6 5 7 4 2 2 2 5 11 17 21 24 26 27 28 33 33 32 29 28 23 23 20 17 16 15 15 13 13 14 13 11 11 10 9

GFSSGP_850_spd_339.txt.gz
Wind_Speed
2 6 8 7 4 2 11 11 13 12 10 5 10 2 13 13 14 6 23 15 18 15 14 14 11 11 10 10 11 10 11 10 8 6 6 8 9 9 10 10 9 9 10 10 9 8 7 7 8
2 8 7 8 3 2 7 11 10 9 12 12 7 7 3 12 10 22 19 19 19 15 11 12 12 11 11 11 11 10 10 9 7 6 7 8 9 10 10 10 10 10 11 11 13 13 12 10 9
0 7 10 9 5 4 11 12 11 12 12 9 6 7 4 11 19 17 18 20 17 14 14 13 12 12 12 11 11 10 10 9 9 9 9 10 10 10 8 10 9 11 11 12 12 13 13 13 12
4 6 9 1 13 13 14 11 12 12 9 5 7 11 9 14 13 15 21 19 17 14 16 12 12 13 13 12 11 11 11 10 10 10 10 10 9 8 8 9 10 9 10 11 11 10 10 10 10
4 7 6 5 12 15 13 11 8 9 7 8 4 11 17 11 12 20 20 17 16 14 10 13 14 13 12 12 12 11 10 10 10 10 10 10 8 9 9 8 7 8 9 9 8 8 7 7 7
10 6 4 7 13 10 10 8 4 8 10 9 9 17 13 12 18 19 18 16 14 14 10 11 14 12 11 11 11 11 11 10 11 10 9 8 11 10 7 7 7 9 9 7 6 5 6 5 5
16 5 3 10 10 10 9 1 7 10 9 9 14 12 12 17 19 19 18 16 14 13 14 11 11 12 11 11 11 12 11 11 11 11 9 10 10 8 8 8 9 9 9 8 7 4 3 3 3
10 6 4 7 8 14 8 9 4 7 13 13 7 6 17 20 20 17 17 16 14 14 12 12 12 11 11 11 12 12 11 10 10 10 11 11 10 9 9 9 9 9 8 6 4 3 2 2 2
5 2 4 3 10 11 9 10 6 7 12 8 2 5 19 21 20 18 17 16 15 14 13 14 11 14 12 11 12 12 12 10 10 11 11 11 7 7 5 6 5 6 5 3 2 2 2 2 2
7 5 11 9 4 11 6 10 9 11 9 9 7 15 19 21 20 19 18 17 16 15 14 14 12 13 13 10 12 9 9 8 8 8 10 9 8 7 6 4 3 2 2 3 5 5 4 5 12
10 5 10 5 7 11 8 11 4 10 6 13 13 19 18 19 17 17 16 16 16 16 16 15 14 14 12 13 9 10 9 9 8 10 9 7 8 6 6 3 1 1 3 4 7 8 6 8 11
12 7 5 5 8 10 5 9 7 7 9 8 16 20 19 18 17 16 16 16 16 16 15 15 15 15 14 12 11 11 11 10 9 9 13 10 11 8 9 7 5 6 3 2 4 4 6 4 6
3 10 7 7 5 10 8 3 7 6 4 10 16 19 19 17 15 14 14 15 16 17 17 16 16 16 15 13 13 11 11 10 9 10 12 9 8 8 7 5 4 4 4 4 7 6 6 7 9
3 8 9 9 7 8 8 7 6 8 7 12 15 17 17 16 15 13 13 15 17 16 17 17 17 17 16 17 14 15 13 10 11 10 9 12 8 7 6 7 1 4 4 5 5 7 4 8 11
8 5 10 12 10 8 11 3 10 12 10 13 14 15 15 15 14 14 14 14 15 16 16 17 17 16 17 17 16 14 13 12 12 11 12 13 11 8 8 4 6 6 7 9 6 5 5 8 11
12 12 7 7 10 7 10 14 13 13 12 14 14 15 15 16 15 15 14 15 14 14 17 18 17 17 17 16 16 14 13 12 11 11 10 13 12 12 7 7 6 8 5 3 3 3 5 7 9
9 8 20 15 10 3 8 6 5 14 11 14 16 16 16 17 17 17 16 16 15 14 16 18 18 18 18 17 15 15 15 15 13 12 11 11 10 9 9 6 6 10 3 5 4 3 6 8 10
14 7 7 7 3 8 10 10 8 8 15 13 16 17 17 18 19 20 18 17 16 15 14 16 16 17 19 17 17 15 14 14 13 13 13 11 9 9 10 9 8 6 6 6 8 8 7 7 10
8 1 12 7 1 5 8 10 10 12 10 13 16 19 19 18 19 21 21 20 19 18 17 17 17 19 19 17 18 17 17 14 14 13 14 12 14 10 10 10 10 10 10 12 11 4 6 5 13
3 19 17 8 1 5 7 10 7 6 10 11 17 20 20 20 20 22 23 23 23 21 19 18 19 21 20 18 18 17 15 14 14 13 14 14 12 12 12 12 11 17 2 9 8 9 12 15 16
16 7 9 11 9 7 6 16 10 7 2 4 10 12 17 23 23 24 26 25 25 24 23 23 23 22 20 20 18 17 15 15 15 15 14 14 14 14 14 12 18 19 11 7 7 10 16 24 23
9 7 9 11 11 4 7 6 12 22 9 3 5 8 14 19 22 23 26 28 27 26 25 25 26 26 23 24 20 22 18 16 16 13 16 17 17 17 14 15 15 12 8 11 13 18 20 18 19
9 7 9 9 14 14 14 7 7 18 11 7 4 1 9 16 21 24 28 29 27 26 26 26 27 27 26 25 25 22 21 15 14 15 15 17 15 16 13 11 14 15 15 15 15 21 15 10 14
7 13 14 12 13 6 10 8 12 13 12 13 17 14 7 11 16 20 22 23 27 24 26 26 28 32 31 27 28 27 20 19 12 12 15 9 9 12 14 14 16 18 19 17 16 16 18 17 16
11 16 7 7 7 8 10 7 10 12 11 10 10 13 13 9 9 15 19 19 24 25 26 24 24 26 22 29 28 30 29 21 19 17 15 11 11 12 14 15 17 19 21 20 15 12 11 14 14
12 10 7 8 9 11 5 1 3 7 6 5 9 6 5 8 6 9 13 18 19 19 17 24 26 25 23 18 27 27 27 18 21 20 15 13 13 12 12 12 14 13 14 14 9 7 11 13 12
4 8 14 10 14 11 4 6 8 9 7 12 15 13 11 5 6 5 7 4 9 10 17 20 24 26 28 22 28 32 20 18 23 22 8 15 15 15 21 24 21 11 10 8 11 10 9 11 8
11 12 12 6 7 8 8 11 2 8 12 12 13 19 8 5 5 4 6 8 8 10 12 17 20 21 22 22 23 27 21 13 5 15 16 4 11 12 21 17 19 19 14 15 12 10 10 12 10
4 12 8 11 6 10 11 7 10 10 10 12 16 16 13 9 4 5 6 7 9 9 9 12 19 22 24 27 32 31 32 11 14 18 21 18 22 24 19 13 14 14 11 10 10 10 11 11 11
10 14 14 10 11 11 11 14 4 1 8 11 17 12 10 7 3 6 7 8 9 10 12 13 17 22 25 31 30 30 30 19 24 30 27 27 25 20 16 17 13 10 12 12 12 11 10 11 12

GFSSGP_850_spd_342.txt.gz
Wind_Speed
2 9 19 37 7 2 12 12 16 11 11 16 13 18 13 18 10 4 23 17 21 19 18 15 13 12 12 12 12 11 11 10 8 8 7 8 9 8 9 9 9 9 9 7 6 7 7 7 7
4 5 5 8 4 4 4 11 15 13 17 11 8 7 22 16 13 26 20 20 22 14 16 14 13 13 12 12 12 11 10 9 8 7 9 9 9 10 9 10 9 10 10 10 9 9 8 8 8
3 8 9 3 3 5 10 11 15 14 12 9 6 14 12 20 25 20 22 23 16 10 13 12 13 14 13 13 12 12 11 9 9 10 10 11 11 11 10 9 9 10 10 11 12 12 11 10 9
8 16 6 2 5 16 17 14 17 13 9 3 17 12 22 19 19 22 23 20 20 17 10 9 13 15 14 13 12 11 11 11 11 11 12 11 11 11 9 10 10 9 10 11 10 10 9 8 8
9 11 4 4 16 16 14 13 12 11 10 9 21 18 19 14 22 23 22 22 19 17 10 11 14 15 14 13 12 12 11 11 11 11 11 11 9 10 10 9 9 9 9 8 7 7 7 6 6
8 5 1 8 13 13 12 9 12 15 14 10 20 18 13 16 22 20 19 17 21 19 14 14 16 14 13 13 12 12 12 12 11 11 11 9 11 10 8 8 8 8 8 7 5 5 5 5 4
3 5 5 7 14 11 10 10 11 13 12 14 18 15 14 18 19 19 17 16 16 18 11 13 14 13 13 12 12 12 11 11 12 11 9 11 10 8 8 7 7 7 6 5 4 2 2 3 4
10 5 7 9 4 17 6 11 12 14 18 13 15 7 17 21 20 18 16 15 15 14 14 12 10 11 12 14 13 12 11 12 12 9 10 12 10 8 9 9 8 7 5 3 2 2 2 2 3
9 4 5 5 4 12 13 12 13 15 13 9 2 19 21 22 20 18 16 15 14 15 16 17 11 7 7 8 11 11 11 10 11 9 11 10 10 8 6 7 5 5 3 3 5 6 5 4 4
6 4 2 13 8 6 10 14 14 11 13 12 20 22 23 22 20 19 17 16 16 15 16 18 13 16 11 10 7 8 9 9 9 10 13 15 9 2 2 3 3 2 2 3 9 8 9 8 10
5 5 10 10 12 8 12 9 29 0 3 17 20 22 21 22 18 18 16 16 16 15 15 15 15 17 14 19 6 6 3 6 7 8 14 10 10 8 7 1 1 1 4 8 9 9 14 16 11
7 22 6 7 6 9 10 6 18 11 10 16 20 20 23 21 18 17 15 16 16 15 14 15 20 13 17 19 8 12 9 9 8 10 14 5 14 7 9 8 1 2 6 4 6 6 8 10 15
9 8 10 5 3 11 6 5 5 12 13 15 19 20 20 19 16 16 15 15 15 16 16 15 17 16 14 15 11 15 13 15 9 9 14 8 13 7 11 9 8 5 5 9 9 9 9 9 11
12 7 9 5 4 4 9 6 3 13 12 16 18 18 17 18 16 16 14 15 17 17 17 17 16 23 12 16 17 16 10 15 14 9 10 15 13 11 7 9 5 3 5 8 13 15 12 6 11
34 10 13 11 7 1 13 4 12 23 12 14 16 16 16 16 15 16 14 15 16 18 17 19 17 17 19 18 19 22 11 8 15 12 13 12 16 10 13 5 2 4 7 11 9 13 12 11 12
19 9 9 13 23 23 8 6 8 24 14 17 14 13 14 15 15 15 14 15 16 16 19 19 17 17 19 19 24 24 13 13 13 15 16 15 17 12 9 10 8 10 12 10 6 9 7 10 7
6 4 13 10 19 10 22 6 20 12 25 19 16 17 14 15 14 15 15 16 17 16 19 19 19 20 20 19 19 21 16 17 13 13 15 11 14 15 14 8 8 12 14 7 10 9 3 4 7
7 6 8 14 11 13 16 5 19 34 21 36 21 18 18 17 17 17 17 16 18 18 20 22 21 20 20 19 18 18 16 19 17 16 15 15 12 12 14 13 11 11 6 11 10 11 10 13 12
4 3 7 10 19 11 14 7 4 29 31 32 23 24 20 18 19 20 18 19 20 20 20 24 22 22 24 22 22 19 20 18 17 18 16 15 10 12 12 10 13 14 15 9 3 10 9 10 11
8 10 11 15 16 17 2 20 23 13 18 27 22 21 22 22 19 23 24 22 22 24 23 23 26 26 25 24 20 19 17 19 17 17 21 24 16 15 15 14 17 19 17 16 20 17 13 13 16
9 11 8 9 5 11 6 17 17 26 34 9 3 28 23 25 25 31 33 28 27 29 30 27 26 29 30 25 20 22 20 20 19 19 22 23 23 18 16 21 13 12 8 10 10 15 15 15 19
3 7 11 9 4 4 15 5 4 15 20 3 3 3 6 27 22 19 31 35 34 33 32 28 26 27 24 27 24 26 26 22 19 16 18 24 23 19 22 19 23 15 12 12 14 13 16 17 17
9 10 10 14 10 5 5 9 6 15 9 11 13 12 8 12 22 30 29 35 35 33 33 28 30 26 25 26 27 25 24 23 17 20 17 17 20 21 22 19 18 16 15 15 15 14 15 15 14
12 14 14 16 11 6 8 7 8 7 9 10 10 11 12 12 13 9 30 32 27 34 27 40 34 29 27 27 31 29 28 22 19 18 19 17 17 17 18 17 14 14 15 16 15 15 16 16 17
13 14 4 5 3 3 7 1 10 15 11 7 4 4 4 8 10 9 23 30 33 32 30 35 38 35 31 29 28 29 18 22 19 16 15 15 13 12 12 14 13 13 14 17 15 16 16 13 11
12 9 10 12 9 3 4 4 8 15 16 11 9 7 6 6 12 13 13 22 27 34 27 38 30 38 35 35 24 15 24 23 17 16 20 20 16 15 11 17 12 12 17 17 13 11 11 11 7
6 10 16 10 14 6 5 12 18 10 12 15 10 13 15 5 4 8 15 12 9 13 22 23 22 31 35 33 24 27 28 30 26 23 24 23 17 9 25 18 15 16 9 7 10 10 9 7 6
8 8 8 6 5 7 10 8 10 10 10 10 9 11 11 9 4 1 7 12 10 4 6 15 17 24 27 31 30 29 30 24 21 13 21 18 23 14 10 12 13 11 15 19 13 11 11 12 10
8 6 11 11 6 6 10 7 12 9 6 6 7 10 11 8 10 4 7 7 7 6 5 10 16 20 22 26 28 32 34 29 31 23 18 19 15 13 19 14 11 8 8 12 15 11 8 11 13
8 8 10 8 11 11 12 10 6 7 3 7 10 14 12 5 5 4 5 8 10 13 14 9 12 19 22 22 28 30 30 28 26 29 22 24 18 15 17 16 11 10 8 12 11 11 11 11 12

GFSSGP_850_spd_348.txt.gz
Wind_Speed
2 6 8 3 4 3 4 4 3 4 5 4 9 5 8 8 2 3 23 27 26 25 24 21 20 20 20 19 17 17 16 14 14 14 14 13 12 12 12 11 10 10 10 10 10 9 9 9 10
4 2 7 3 4 3 4 4 10 5 12 20 16 12 7 3 9 20 32 22 23 25 23 21 21 20 20 19 17 16 15 13 13 13 14 13 13 14 14 14 13 11 10 12 12 10 10 11 10
2 4 5 3 2 4 4 3 10 13 14 8 5 11 5 9 16 33 23 24 27 23 22 21 20 20 20 19 18 16 15 13 14 14 14 15 14 14 15 15 15 14 15 15 13 13 13 13 10
3 5 6 3 4 4 7 5 14 14 15 13 18 8 12 18 27 24 23 26 23 21 20 20 20 20 19 19 18 17 16 14 15 15 16 16 16 16 16 16 14 15 16 17 16 16 15 14 12
1 5 1 3 5 3 6 16 25 6 7 14 16 10 6 16 21 24 24 21 19 21 18 19 19 19 19 19 18 17 16 16 16 16 17 16 16 16 16 15 15 15 15 15 15 16 15 14 12
3 3 2 2 5 4 8 17 23 19 21 21 16 12 4 21 25 26 21 19 20 18 17 17 18 19 19 19 18 17 17 17 17 17 16 16 17 16 15 14 14 14 14 14 14 15 14 13 11
4 2 2 1 2 11 4 29 20 24 23 12 24 6 17 28 26 27 23 20 17 17 19 18 20 20 19 19 18 18 17 17 16 16 16 16 16 15 14 13 13 13 14 14 14 14 11 9 8
5 3 3 5 2 5 14 9 28 30 11 27 30 9 17 33 30 28 24 21 17 15 18 19 19 20 20 20 18 18 17 17 17 15 16 16 15 15 15 15 15 15 15 15 14 12 7 7 7
3 2 4 3 1 3 21 18 22 20 29 12 18 22 31 33 30 32 27 22 18 16 19 18 18 18 18 18 18 18 18 18 16 15 17 16 16 17 17 18 16 16 15 14 11 9 8 6 4
3 2 6 8 1 4 8 18 17 15 18 15 22 27 31 32 34 33 31 26 21 19 18 18 18 17 18 19 17 16 18 17 17 17 18 20 20 18 17 15 14 14 13 12 8 6 6 7 8
6 4 8 10 24 8 8 11 8 19 8 32 34 38 33 32 32 30 30 25 17 17 18 15 15 17 17 16 16 16 18 18 18 21 22 21 20 16 14 13 13 13 12 16 9 4 8 7 13
2 18 22 18 20 16 13 10 5 12 12 31 35 37 36 29 27 27 28 28 23 20 16 18 15 17 22 15 14 16 17 19 21 23 22 19 16 15 11 11 11 10 10 9 5 5 7 5 4
7 15 13 17 14 8 24 19 11 15 30 33 37 35 35 26 26 22 24 26 18 19 18 19 17 18 20 12 16 16 18 17 21 24 20 18 16 13 11 8 11 9 7 5 6 2 3 3 3
14 14 16 25 10 9 22 8 20 13 26 33 34 33 32 26 29 23 24 28 23 19 17 21 19 17 18 14 15 15 16 16 19 22 17 19 18 15 13 9 10 8 8 7 4 1 7 6 8
6 5 4 7 6 5 19 6 7 11 21 22 31 30 30 27 28 29 25 31 27 23 18 23 22 18 17 15 16 15 13 15 16 16 16 17 19 18 20 19 16 10 11 9 7 7 4 5 8
5 3 4 5 7 5 14 1 6 4 10 9 21 30 30 30 28 30 27 30 27 26 24 21 25 22 19 22 21 16 16 17 17 14 13 15 24 22 22 20 18 18 14 13 12 10 10 7 7
4 2 1 4 0 3 7 5 8 9 4 11 12 24 30 31 30 29 28 31 29 30 30 28 28 26 24 27 24 22 18 18 18 16 16 14 22 23 20 19 20 14 13 13 12 12 14 10 8
5 2 4 4 4 6 3 4 5 17 5 11 11 14 25 31 33 29 30 28 29 30 30 30 28 29 27 26 26 29 24 25 21 17 20 17 16 17 22 18 20 17 15 15 16 14 13 10 7
3 4 6 6 8 4 5 7 10 16 16 16 14 15 24 21 30 29 33 30 29 30 32 31 32 33 32 31 25 31 33 28 26 24 21 19 15 16 15 20 21 17 18 16 14 15 12 9 9
2 2 9 9 8 5 4 5 7 12 12 20 7 20 26 27 24 25 36 33 33 33 34 33 34 35 34 32 25 22 31 37 34 28 25 24 24 19 18 19 22 23 21 19 18 17 18 17 14
6 6 6 6 10 7 6 6 4 8 15 21 26 15 24 28 28 27 39 38 35 35 37 36 35 33 32 31 25 21 19 29 36 34 30 24 27 24 26 25 22 23 27 23 20 19 21 18 19
4 12 8 12 5 5 7 3 6 7 12 16 26 26 30 30 32 31 39 40 38 37 37 37 32 31 30 29 28 26 24 29 32 35 30 27 27 29 32 28 25 23 24 21 16 20 19 16 19
7 3 4 8 5 6 4 4 5 6 8 14 19 28 30 31 36 38 36 42 41 37 39 38 34 30 31 29 30 28 26 27 28 28 28 29 30 32 36 31 26 25 23 22 24 21 20 20 18
2 4 9 5 3 4 7 6 5 6 8 5 8 17 17 22 32 33 33 39 38 39 36 39 38 33 33 32 28 32 28 30 35 31 27 30 28 32 36 32 32 29 22 25 22 20 21 21 19
8 6 3 5 4 6 6 4 7 6 7 8 11 16 20 17 18 25 35 38 41 33 33 40 41 38 35 32 31 32 33 33 37 33 32 28 27 28 30 29 28 23 24 20 19 19 21 21 20
1 6 5 3 3 4 4 5 5 8 21 17 12 16 19 19 17 18 21 31 35 36 38 35 43 39 41 37 36 33 39 36 38 35 36 32 32 28 23 23 23 22 24 23 24 21 23 22 22
3 1 5 4 1 4 3 3 5 2 3 4 11 20 21 20 16 15 13 13 19 30 32 34 39 36 39 41 42 37 44 42 42 42 38 24 32 31 26 24 20 25 28 23 20 23 20 17 16
6 3 4 4 2 3 6 3 5 6 8 6 5 22 20 18 18 16 12 12 15 19 24 33 36 35 35 38 36 37 49 48 48 47 43 32 27 25 29 28 21 19 19 20 17 15 14 14 12
2 3 5 4 5 4 2 6 8 10 9 9 9 22 24 24 20 15 12 11 12 15 19 22 25 27 28 30 33 36 48 52 46 44 38 29 21 19 18 15 10 8 12 14 14 14 14 11 13
4 0 2 5 6 1 4 6 6 4 6 21 20 25 22 19 15 11 6 4 7 9 12 15 16 19 24 27 30 32 34 42 47 42 39 26 21 10 11 13 15 6 10 12 14 15 17 13 16